Regional Weather Roundup
Issued by NWS Raleigh/Durham, NC

Current Version | Previous Version | Graphics & Text | Print | Product List | Glossary On
Versions: 1 2 3 4 5 6 7 8 9 10 11 12 13 14 15 16 17 18 19 20 21 22 23 24 25 26 27 28 29 30 31 32 33 34 35 36 37 38 39 40 41 42 43 44 45 46 47 48 49 50
000
ASUS42 KRAH 260910
RWRRAH
NORTH CAROLINA WEATHER ROUNDUP
NATIONAL WEATHER SERVICE RALEIGH NC
500 AM EDT SAT JUL 26 2014

NOTE: "FAIR" INDICATES FEW OR NO CLOUDS BELOW 12,000 FEET WITH NO
SIGNIFICANT WEATHER AND/OR OBSTRUCTIONS TO VISIBILITY.

NCZ001-053-055-056-065-067-261000-
WESTERN NORTH CAROLINA

CITY           SKY/WX    TMP DP  RH WIND       PRES   REMARKS
ASHEVILLE      FOG       66  65  96 CALM      30.08S VSB 1/2
JEFFERSON      PTCLDY    64  62  93 CALM      30.12R
MORGANTON      FOG       64  64 100 CALM      30.06F VSB 1/2
HICKORY        CLEAR     69  67  93 CALM      30.02S FOG
RUTHERFORDTON  CLEAR     68  67  98 CALM      30.02S FOG
MOUNT AIRY     MOCLDY    71  68  90 CALM      30.02S
BOONE          CLEAR     61  61  99 CALM      30.12S
$$

NCZ021-022-025-041-071-084-088-261000-
CENTRAL NORTH CAROLINA

CITY           SKY/WX    TMP DP  RH WIND       PRES   REMARKS
CHARLOTTE      MOCLDY    71  69  93 CALM      30.01S FOG
GREENSBORO     CLOUDY    70  70 100 SW5       30.01S
WINSTON-SALEM  MOCLDY    73  70  90 VRB5      30.03R
RALEIGH-DURHAM CLOUDY    72  69  90 S3        30.01S FOG
FORT BRAGG     CLOUDY    75  73  95 SE1       30.01R
FAYETTEVILLE   FOG       73  72  96 E3        30.00R VSB 1/2
BURLINGTON     CLOUDY    68  65  90 CALM      30.01S
LAURINBURG     FOG       71  70  96 CALM      30.01R VSB 1/2
$$

NCZ011-015-027-028-043-044-047-080-103-261000-
NORTHEASTERN NORTH CAROLINA

CITY           SKY/WX    TMP DP  RH WIND       PRES   REMARKS
ROCKY MT-WILSO FOG       70  69  97 CALM      30.02R VSB 1/4
GREENVILLE     MOCLDY    68  68 100 CALM      30.03S FOG
WASHINGTON     CLEAR     67  66  96 CALM      30.01S
ELIZABETH CITY MOCLDY    67  64  90 CALM      30.02R
MANTEO         NOT AVBL
CAPE HATTERAS  PTCLDY    75  72  90 NE6       30.00R
$$

NCZ078-087-090-091-093-098-101-261000-
SOUTHEASTERN NORTH CAROLINA

CITY           SKY/WX    TMP DP  RH WIND       PRES   REMARKS
LUMBERTON      CLOUDY    75  73  93 CALM      30.00R FOG
GOLDSBORO      CLOUDY    73  73  99 CALM      29.99S
KINSTON        MOCLDY    73  72  97 CALM      30.01S
KENANSVILLE    CLOUDY    71  70  95 CALM      30.01R
NEW BERN       MOCLDY    73  70  90 CALM      30.01R
CHERRY POINT   PTCLDY    73  70  90 CALM      30.01R
BEAUFORT       PTCLDY    75  73  93 NE3       29.99S
JACKSONVILLE   PTCLDY    74  71  91 N5        30.00R
WILMINGTON     MOCLDY    73  72  96 CALM      29.99S
$$



USA.gov is the U.S. government's official web portal to all federal, state and local government web resources and services.